contact:dominique.lefevre@mio.osupytheas.fr, maurice.libes@osupytheas.fr, didier.mallarino@osupytheas.fr
Project:EMSO http://www.emso-fr.org/EMSO-France
Depth: 2436.0 m
Title:EMSO Ligure Ouest : Data MII capteur MICROCAT
DateTime_Computer,Latitude,Longitude,Temperature,Conductivity,Pressure,DateTime_Instrument
DateTime_Computer,Latitude,Longitude,degC,S m-1,dbar,DateTime_Instrument
2019-08-26T00:02:54Z,42.805,6.029,13.2983,4.60073,2469.9,2019-8-26T02:03:15Z
2019-08-26T00:05:57Z,42.805,6.029,13.2990,4.60065,2469.89,2019-8-26T02:06:18Z
2019-08-26T00:09:00Z,42.805,6.029,13.2998,4.60058,2469.853,2019-8-26T02:09:21Z
2019-08-26T00:12:03Z,42.805,6.029,13.3001,4.60094,2469.9,2019-8-26T02:12:25Z
2019-08-26T00:15:06Z,42.805,6.029,13.3007,4.60028,2469.9,2019-8-26T02:15:28Z
2019-08-26T00:18:09Z,42.805,6.029,13.2982,4.60036,2469.876,2019-8-26T02:18:31Z
2019-08-26T00:21:13Z,42.805,6.029,13.2988,4.60075,2469.9,2019-8-26T02:21:34Z
2019-08-26T00:24:16Z,42.805,6.029,13.2983,4.60039,2469.9,2019-8-26T02:24:37Z
2019-08-26T00:27:19Z,42.805,6.029,13.2974,4.60021,2469.89,2019-8-26T02:27:41Z
2019-08-26T00:30:23Z,42.805,6.029,13.2980,4.60026,2469.9,2019-8-26T02:30:44Z
2019-08-26T00:33:26Z,42.805,6.029,13.2986,4.60025,2469.89,2019-8-26T02:33:47Z
2019-08-26T00:36:29Z,42.805,6.029,13.3003,4.60029,2469.876,2019-8-26T02:36:50Z
2019-08-26T00:39:32Z,42.805,6.029,13.2997,4.60039,2469.914,2019-8-26T02:39:54Z
2019-08-26T00:42:35Z,42.805,6.029,13.3002,4.60037,2469.914,2019-8-26T02:42:57Z
2019-08-26T00:45:38Z,42.805,6.029,13.2996,4.60089,2469.876,2019-8-26T02:46:00Z
2019-08-26T00:48:42Z,42.805,6.029,13.3051,4.60056,2469.876,2019-8-26T02:49:03Z
2019-08-26T00:51:45Z,42.805,6.029,13.3015,4.60067,2469.9,2019-8-26T02:52:06Z
2019-08-26T00:54:48Z,42.805,6.029,13.3034,4.60029,2469.9,2019-8-26T02:55:10Z
2019-08-26T00:57:51Z,42.805,6.029,13.3036,4.60060,2469.9,2019-8-26T02:58:13Z
2019-08-26T01:00:54Z,42.805,6.029,13.3009,4.60075,2469.9,2019-8-26T03:01:16Z
2019-08-26T01:03:58Z,42.805,6.029,13.3028,4.60033,2469.89,2019-8-26T03:04:19Z
2019-08-26T01:07:01Z,42.805,6.029,13.3036,4.60003,2469.9,2019-8-26T03:07:22Z
2019-08-26T01:10:04Z,42.805,6.029,13.3037,4.60036,2469.9,2019-8-26T03:10:26Z
2019-08-26T01:13:07Z,42.805,6.029,13.3026,4.60011,2469.914,2019-8-26T03:13:29Z
2019-08-26T01:16:10Z,42.805,6.029,13.3025,4.60031,2469.89,2019-8-26T03:16:32Z
2019-08-26T01:19:14Z,42.805,6.029,13.3024,4.59988,2469.927,2019-8-26T03:19:35Z
2019-08-26T01:22:17Z,42.805,6.029,13.3029,4.60025,2469.9,2019-8-26T03:22:38Z
2019-08-26T01:25:20Z,42.805,6.029,13.3015,4.60036,2469.89,2019-8-26T03:25:42Z
2019-08-26T01:28:23Z,42.805,6.029,13.3006,4.60026,2469.89,2019-8-26T03:28:45Z
2019-08-26T01:31:26Z,42.805,6.029,13.3017,4.60030,2469.89,2019-8-26T03:31:48Z
2019-08-26T01:34:30Z,42.805,6.029,13.2996,4.60004,2469.914,2019-8-26T03:34:51Z
2019-08-26T01:37:33Z,42.805,6.029,13.3003,4.60023,2469.914,2019-8-26T03:37:54Z
2019-08-26T01:40:36Z,42.805,6.029,13.3004,4.60016,2469.923,2019-8-26T03:40:58Z
2019-08-26T01:43:39Z,42.805,6.029,13.2996,4.60054,2469.923,2019-8-26T03:44:01Z
2019-08-26T01:46:42Z,42.805,6.029,13.3002,4.60021,2469.914,2019-8-26T03:47:04Z
2019-08-26T01:49:46Z,42.805,6.029,13.3001,4.60016,2469.9,2019-8-26T03:50:07Z
2019-08-26T01:52:49Z,42.805,6.029,13.3033,4.60014,2469.876,2019-8-26T03:53:10Z
2019-08-26T01:55:52Z,42.805,6.029,13.3013,4.60004,2469.923,2019-8-26T03:56:14Z
2019-08-26T01:58:55Z,42.805,6.029,13.3001,4.60010,2469.9,2019-8-26T03:59:17Z
2019-08-26T02:01:59Z,42.805,6.029,13.3006,4.60017,2469.9,2019-8-26T04:02:20Z
2019-08-26T02:05:02Z,42.805,6.029,13.2995,4.59996,2469.9,2019-8-26T04:05:23Z
2019-08-26T02:08:05Z,42.805,6.029,13.3001,4.59991,2469.9,2019-8-26T04:08:27Z
2019-08-26T02:11:08Z,42.805,6.029,13.2997,4.59999,2469.96,2019-8-26T04:11:30Z
2019-08-26T02:14:11Z,42.805,6.029,13.2983,4.60007,2469.914,2019-8-26T04:14:33Z
2019-08-26T02:17:15Z,42.805,6.029,13.2983,4.60026,2469.9,2019-8-26T04:17:36Z
2019-08-26T02:20:18Z,42.805,6.029,13.2989,4.60001,2469.9,2019-8-26T04:20:39Z
2019-08-26T02:23:21Z,42.805,6.029,13.3014,4.60017,2469.923,2019-8-26T04:23:42Z
2019-08-26T02:26:24Z,42.805,6.029,13.2992,4.60013,2469.9,2019-8-26T04:26:46Z
2019-08-26T02:29:28Z,42.805,6.029,13.2972,4.59998,2469.914,2019-8-26T04:29:49Z
2019-08-26T02:32:31Z,42.805,6.029,13.2982,4.59984,2469.937,2019-8-26T04:32:52Z
2019-08-26T02:35:34Z,42.805,6.029,13.3000,4.59991,2469.9,2019-8-26T04:35:56Z
2019-08-26T02:38:37Z,42.805,6.029,13.3007,4.59992,2469.937,2019-8-26T04:38:59Z
2019-08-26T02:41:40Z,42.805,6.029,13.3009,4.59996,2469.914,2019-8-26T04:42:02Z
2019-08-26T02:44:44Z,42.805,6.029,13.2986,4.59984,2469.937,2019-8-26T04:45:05Z
2019-08-26T02:47:47Z,42.805,6.029,13.2995,4.59984,2469.923,2019-8-26T04:48:08Z
2019-08-26T02:50:50Z,42.805,6.029,13.2991,4.60003,2469.937,2019-8-26T04:51:12Z
2019-08-26T02:53:53Z,42.805,6.029,13.2989,4.59998,2469.9,2019-8-26T04:54:15Z
2019-08-26T02:56:56Z,42.805,6.029,13.2989,4.59994,2469.914,2019-8-26T04:57:18Z
2019-08-26T03:00:00Z,42.805,6.029,13.3004,4.59983,2469.923,2019-8-26T05:00:21Z
2019-08-26T03:03:03Z,42.805,6.029,13.3005,4.59987,2469.9,2019-8-26T05:03:24Z
2019-08-26T03:06:06Z,42.805,6.029,13.3004,4.60003,2469.914,2019-8-26T05:06:28Z
2019-08-26T03:09:09Z,42.805,6.029,13.2995,4.59986,2469.914,2019-8-26T05:09:31Z
2019-08-26T03:12:12Z,42.805,6.029,13.2999,4.60002,2469.937,2019-8-26T05:12:34Z
2019-08-26T03:15:16Z,42.805,6.029,13.2993,4.59986,2469.937,2019-8-26T05:15:37Z
2019-08-26T03:18:19Z,42.805,6.029,13.2999,4.59996,2469.914,2019-8-26T05:18:40Z
2019-08-26T03:21:22Z,42.805,6.029,13.2993,4.59992,2469.914,2019-8-26T05:21:44Z
2019-08-26T03:24:25Z,42.805,6.029,13.3028,4.59988,2469.914,2019-8-26T05:24:47Z
2019-08-26T03:27:28Z,42.805,6.029,13.3014,4.59988,2469.937,2019-8-26T05:27:50Z
2019-08-26T03:30:32Z,42.805,6.029,13.3003,4.59989,2469.937,2019-8-26T05:30:53Z
2019-08-26T03:33:35Z,42.805,6.029,13.3012,4.59991,2469.923,2019-8-26T05:33:56Z
2019-08-26T03:36:38Z,42.805,6.029,13.3006,4.59992,2469.923,2019-8-26T05:37:00Z
2019-08-26T03:39:41Z,42.805,6.029,13.2984,4.60011,2469.914,2019-8-26T05:40:03Z
2019-08-26T03:42:44Z,42.805,6.029,13.2998,4.59984,2469.914,2019-8-26T05:43:06Z
2019-08-26T03:45:48Z,42.805,6.029,13.2985,4.59990,2469.89,2019-8-26T05:46:09Z
2019-08-26T03:48:51Z,42.805,6.029,13.3013,4.59990,2469.937,2019-8-26T05:49:12Z
2019-08-26T03:51:54Z,42.805,6.029,13.3003,4.60006,2469.937,2019-8-26T05:52:16Z
2019-08-26T03:54:57Z,42.805,6.029,13.3013,4.59989,2469.947,2019-8-26T05:55:19Z
2019-08-26T03:58:01Z,42.805,6.029,13.3003,4.59989,2469.876,2019-8-26T05:58:22Z
2019-08-26T04:01:04Z,42.805,6.029,13.2999,4.59991,2469.89,2019-8-26T06:01:25Z
2019-08-26T04:04:07Z,42.805,6.029,13.3009,4.59978,2469.89,2019-8-26T06:04:28Z
2019-08-26T04:07:10Z,42.805,6.029,13.3007,4.59991,2469.923,2019-8-26T06:07:32Z
2019-08-26T04:10:13Z,42.805,6.029,13.2992,4.59993,2469.914,2019-8-26T06:10:35Z
2019-08-26T04:13:17Z,42.805,6.029,13.2996,4.59989,2469.914,2019-8-26T06:13:38Z
2019-08-26T04:16:20Z,42.805,6.029,13.3005,4.59991,2469.914,2019-8-26T06:16:41Z
2019-08-26T04:19:23Z,42.805,6.029,13.3021,4.59994,2469.876,2019-8-26T06:19:44Z
2019-08-26T04:22:26Z,42.805,6.029,13.3016,4.59997,2469.914,2019-8-26T06:22:48Z
2019-08-26T04:25:30Z,42.805,6.029,13.2995,4.59990,2469.914,2019-8-26T06:25:51Z
2019-08-26T04:28:33Z,42.805,6.029,13.3006,4.59998,2469.89,2019-8-26T06:28:54Z
2019-08-26T04:31:36Z,42.805,6.029,13.3029,4.59999,2469.876,2019-8-26T06:31:58Z
2019-08-26T04:34:39Z,42.805,6.029,13.3014,4.59996,2469.914,2019-8-26T06:35:01Z
2019-08-26T04:37:43Z,42.805,6.029,13.3043,4.59999,2469.914,2019-8-26T06:38:04Z
2019-08-26T04:40:46Z,42.805,6.029,13.3022,4.60000,2469.923,2019-8-26T06:41:07Z
2019-08-26T04:43:49Z,42.805,6.029,13.3011,4.59993,2469.914,2019-8-26T06:44:10Z
2019-08-26T04:46:52Z,42.805,6.029,13.3001,4.59994,2469.914,2019-8-26T06:47:14Z
2019-08-26T04:49:55Z,42.805,6.029,13.3000,4.59985,2469.914,2019-8-26T06:50:17Z
2019-08-26T04:52:59Z,42.805,6.029,13.3006,4.59984,2469.914,2019-8-26T06:53:20Z
2019-08-26T04:56:02Z,42.805,6.029,13.3010,4.59998,2469.914,2019-8-26T06:56:23Z
2019-08-26T04:59:05Z,42.805,6.029,13.3006,4.59985,2469.876,2019-8-26T06:59:26Z
2019-08-26T05:02:08Z,42.805,6.029,13.3001,4.59981,2469.89,2019-8-26T07:02:30Z
2019-08-26T05:05:11Z,42.805,6.029,13.3001,4.59994,2469.9,2019-8-26T07:05:33Z
2019-08-26T05:08:14Z,42.805,6.029,13.3000,4.59989,2469.89,2019-8-26T07:08:36Z
2019-08-26T05:11:18Z,42.805,6.029,13.3000,4.59996,2469.937,2019-8-26T07:11:39Z
2019-08-26T05:14:21Z,42.805,6.029,13.3007,4.59994,2469.876,2019-8-26T07:14:42Z
2019-08-26T05:17:24Z,42.805,6.029,13.3001,4.59994,2469.9,2019-8-26T07:17:46Z
2019-08-26T05:20:27Z,42.805,6.029,13.3016,4.59988,2469.9,2019-8-26T07:20:49Z
2019-08-26T05:23:30Z,42.805,6.029,13.2994,4.60000,2469.923,2019-8-26T07:23:52Z
2019-08-26T05:26:34Z,42.805,6.029,13.3006,4.60021,2469.937,2019-8-26T07:26:55Z
2019-08-26T05:29:37Z,42.805,6.029,13.3006,4.60003,2469.89,2019-8-26T07:29:58Z
2019-08-26T05:32:40Z,42.805,6.029,13.3031,4.59994,2469.914,2019-8-26T07:33:02Z
2019-08-26T05:35:43Z,42.805,6.029,13.3015,4.59999,2469.9,2019-8-26T07:36:05Z
2019-08-26T05:38:46Z,42.805,6.029,13.3015,4.59994,2469.914,2019-8-26T07:39:08Z
2019-08-26T05:41:50Z,42.805,6.029,13.3011,4.59994,2469.914,2019-8-26T07:42:11Z
2019-08-26T05:44:53Z,42.805,6.029,13.3000,4.60006,2469.9,2019-8-26T07:45:14Z
2019-08-26T05:47:56Z,42.805,6.029,13.3030,4.60026,2469.974,2019-8-26T07:48:18Z
2019-08-26T05:50:59Z,42.805,6.029,13.3029,4.60005,2469.876,2019-8-26T07:51:21Z
2019-08-26T05:54:02Z,42.805,6.029,13.2991,4.59999,2469.937,2019-8-26T07:54:24Z
2019-08-26T05:57:06Z,42.805,6.029,13.2961,4.60009,2469.923,2019-8-26T07:57:27Z
2019-08-26T06:00:09Z,42.805,6.029,13.2985,4.60008,2469.89,2019-8-26T08:00:30Z
2019-08-26T06:03:12Z,42.805,6.029,13.2964,4.60049,2469.876,2019-8-26T08:03:34Z
2019-08-26T06:06:15Z,42.805,6.029,13.2959,4.60001,2469.867,2019-8-26T08:06:37Z
2019-08-26T06:09:18Z,42.805,6.029,13.2964,4.59976,2469.89,2019-8-26T08:09:40Z
2019-08-26T06:12:22Z,42.805,6.029,13.2961,4.59983,2469.876,2019-8-26T08:12:43Z
2019-08-26T06:15:25Z,42.805,6.029,13.2961,4.59982,2469.89,2019-8-26T08:15:46Z
2019-08-26T06:18:28Z,42.805,6.029,13.2961,4.59986,2469.89,2019-8-26T08:18:49Z
2019-08-26T06:21:31Z,42.805,6.029,13.2961,4.59976,2469.9,2019-8-26T08:21:53Z
2019-08-26T06:24:34Z,42.805,6.029,13.2960,4.59983,2469.923,2019-8-26T08:24:56Z
2019-08-26T06:27:38Z,42.805,6.029,13.2959,4.59983,2469.853,2019-8-26T08:28:00Z
2019-08-26T06:30:41Z,42.805,6.029,13.2961,4.59972,2469.9,2019-8-26T08:31:03Z
2019-08-26T06:33:44Z,42.805,6.029,13.2961,4.59966,2469.89,2019-8-26T08:34:06Z
2019-08-26T06:36:48Z,42.805,6.029,13.2960,4.59970,2469.867,2019-8-26T08:37:09Z
2019-08-26T06:39:51Z,42.805,6.029,13.2958,4.59964,2469.867,2019-8-26T08:40:12Z
2019-08-26T06:42:54Z,42.805,6.029,13.2959,4.59970,2469.89,2019-8-26T08:43:15Z
2019-08-26T06:45:57Z,42.805,6.029,13.2959,4.59969,2469.9,2019-8-26T08:46:19Z
2019-08-26T06:49:01Z,42.805,6.029,13.2961,4.59972,2469.89,2019-8-26T08:49:22Z
2019-08-26T06:52:04Z,42.805,6.029,13.2961,4.59972,2469.914,2019-8-26T08:52:26Z
2019-08-26T06:55:07Z,42.805,6.029,13.2957,4.59970,2469.876,2019-8-26T08:55:29Z
2019-08-26T06:58:11Z,42.805,6.029,13.2961,4.59968,2469.867,2019-8-26T08:58:32Z
2019-08-26T07:01:14Z,42.805,6.029,13.2960,4.59970,2469.876,2019-8-26T09:01:35Z
2019-08-26T07:04:17Z,42.805,6.029,13.2962,4.59966,2469.876,2019-8-26T09:04:38Z
2019-08-26T07:07:20Z,42.805,6.029,13.2958,4.59964,2469.876,2019-8-26T09:07:42Z
2019-08-26T07:10:23Z,42.805,6.029,13.2961,4.59970,2469.844,2019-8-26T09:10:45Z
2019-08-26T07:13:27Z,42.805,6.029,13.2958,4.59967,2469.867,2019-8-26T09:13:48Z
2019-08-26T07:16:30Z,42.805,6.029,13.2958,4.59966,2469.89,2019-8-26T09:16:51Z
2019-08-26T07:19:33Z,42.805,6.029,13.2958,4.59970,2469.853,2019-8-26T09:19:54Z
2019-08-26T07:22:36Z,42.805,6.029,13.2959,4.59964,2469.867,2019-8-26T09:22:58Z
2019-08-26T07:25:39Z,42.805,6.029,13.2962,4.59967,2469.89,2019-8-26T09:26:01Z
2019-08-26T07:28:43Z,42.805,6.029,13.2960,4.59972,2469.844,2019-8-26T09:29:04Z
2019-08-26T07:31:46Z,42.805,6.029,13.2961,4.59970,2469.853,2019-8-26T09:32:07Z
2019-08-26T07:34:49Z,42.805,6.029,13.2957,4.59973,2469.83,2019-8-26T09:35:10Z
2019-08-26T07:37:52Z,42.805,6.029,13.2960,4.59965,2469.853,2019-8-26T09:38:14Z
2019-08-26T07:40:55Z,42.805,6.029,13.2959,4.59966,2469.844,2019-8-26T09:41:17Z
2019-08-26T07:43:58Z,42.805,6.029,13.2961,4.59971,2469.853,2019-8-26T09:44:20Z
2019-08-26T07:47:02Z,42.805,6.029,13.2960,4.59965,2469.876,2019-8-26T09:47:23Z
2019-08-26T07:50:05Z,42.805,6.029,13.2961,4.59978,2469.867,2019-8-26T09:50:26Z
2019-08-26T07:53:08Z,42.805,6.029,13.2961,4.59970,2469.853,2019-8-26T09:53:30Z
2019-08-26T07:56:11Z,42.805,6.029,13.2961,4.59969,2469.853,2019-8-26T09:56:33Z
2019-08-26T07:59:14Z,42.805,6.029,13.2962,4.59975,2469.876,2019-8-26T09:59:36Z
2019-08-26T08:02:18Z,42.805,6.029,13.2960,4.59979,2469.83,2019-8-26T10:02:39Z
2019-08-26T08:05:21Z,42.805,6.029,13.2959,4.59983,2469.83,2019-8-26T10:05:42Z
2019-08-26T08:08:24Z,42.805,6.029,13.2961,4.59982,2469.876,2019-8-26T10:08:45Z
2019-08-26T08:11:27Z,42.805,6.029,13.2963,4.59971,2469.821,2019-8-26T10:11:49Z
2019-08-26T08:14:30Z,42.805,6.029,13.2958,4.59971,2469.83,2019-8-26T10:14:52Z
2019-08-26T08:17:34Z,42.805,6.029,13.2960,4.59962,2469.83,2019-8-26T10:17:55Z
2019-08-26T08:20:37Z,42.805,6.029,13.2959,4.59966,2469.83,2019-8-26T10:20:58Z
2019-08-26T08:23:40Z,42.805,6.029,13.2961,4.59967,2469.853,2019-8-26T10:24:02Z
2019-08-26T08:26:44Z,42.805,6.029,13.2959,4.59972,2469.853,2019-8-26T10:27:05Z
2019-08-26T08:29:47Z,42.805,6.029,13.2961,4.59968,2469.844,2019-8-26T10:30:09Z
2019-08-26T08:32:50Z,42.805,6.029,13.2958,4.59966,2469.867,2019-8-26T10:33:12Z
2019-08-26T08:35:53Z,42.805,6.029,13.2961,4.59964,2469.867,2019-8-26T10:36:15Z
2019-08-26T08:38:57Z,42.805,6.029,13.2960,4.59963,2469.83,2019-8-26T10:39:18Z
2019-08-26T08:42:00Z,42.805,6.029,13.2960,4.59964,2469.867,2019-8-26T10:42:21Z
2019-08-26T08:45:03Z,42.805,6.029,13.2962,4.59966,2469.844,2019-8-26T10:45:25Z
2019-08-26T08:48:06Z,42.805,6.029,13.2957,4.59971,2469.844,2019-8-26T10:48:28Z
2019-08-26T08:51:09Z,42.805,6.029,13.2957,4.59963,2469.867,2019-8-26T10:51:31Z
2019-08-26T08:54:13Z,42.805,6.029,13.2960,4.59962,2469.83,2019-8-26T10:54:34Z
2019-08-26T08:57:16Z,42.805,6.029,13.2960,4.59969,2469.821,2019-8-26T10:57:37Z
2019-08-26T09:00:19Z,42.805,6.029,13.2958,4.59966,2469.83,2019-8-26T11:00:41Z
2019-08-26T09:03:22Z,42.805,6.029,13.2960,4.59963,2469.83,2019-8-26T11:03:44Z
2019-08-26T09:06:25Z,42.805,6.029,13.2960,4.59965,2469.821,2019-8-26T11:06:47Z
2019-08-26T09:09:29Z,42.805,6.029,13.2960,4.59983,2469.83,2019-8-26T11:09:50Z
2019-08-26T09:12:32Z,42.805,6.029,13.2961,4.59981,2469.83,2019-8-26T11:12:53Z
2019-08-26T09:15:35Z,42.805,6.029,13.2964,4.59961,2469.853,2019-8-26T11:15:57Z
2019-08-26T09:18:38Z,42.805,6.029,13.2962,4.59969,2469.867,2019-8-26T11:19:00Z
2019-08-26T09:21:41Z,42.805,6.029,13.2957,4.59964,2469.83,2019-8-26T11:22:03Z
2019-08-26T09:24:45Z,42.805,6.029,13.2961,4.59970,2469.806,2019-8-26T11:25:06Z
2019-08-26T09:27:48Z,42.805,6.029,13.2966,4.59965,2469.821,2019-8-26T11:28:09Z
2019-08-26T09:30:51Z,42.805,6.029,13.2958,4.59972,2469.806,2019-8-26T11:31:13Z
2019-08-26T09:33:54Z,42.805,6.029,13.2957,4.59961,2469.83,2019-8-26T11:34:16Z
2019-08-26T09:36:57Z,42.805,6.029,13.2960,4.59959,2469.83,2019-8-26T11:37:19Z
2019-08-26T09:40:01Z,42.805,6.029,13.2959,4.59959,2469.806,2019-8-26T11:40:22Z
2019-08-26T09:43:04Z,42.805,6.029,13.2958,4.59961,2469.806,2019-8-26T11:43:25Z
2019-08-26T09:46:07Z,42.805,6.029,13.2961,4.59966,2469.844,2019-8-26T11:46:29Z
2019-08-26T09:49:10Z,42.805,6.029,13.2961,4.59961,2469.867,2019-8-26T11:49:32Z
2019-08-26T09:52:13Z,42.805,6.029,13.2964,4.59963,2469.83,2019-8-26T11:52:35Z
2019-08-26T09:55:17Z,42.805,6.029,13.2959,4.59966,2469.83,2019-8-26T11:55:38Z
2019-08-26T09:58:20Z,42.805,6.029,13.2958,4.59968,2469.83,2019-8-26T11:58:41Z
2019-08-26T10:01:23Z,42.805,6.029,13.2961,4.59964,2469.806,2019-8-26T12:01:44Z
2019-08-26T10:04:26Z,42.805,6.029,13.2964,4.59958,2469.806,2019-8-26T12:04:48Z
2019-08-26T10:07:29Z,42.805,6.029,13.2961,4.59959,2469.83,2019-8-26T12:07:51Z
2019-08-26T10:10:33Z,42.805,6.029,13.2965,4.59957,2469.844,2019-8-26T12:10:54Z
2019-08-26T10:13:36Z,42.805,6.029,13.2958,4.59960,2469.83,2019-8-26T12:13:57Z
2019-08-26T10:16:39Z,42.805,6.029,13.2957,4.59960,2469.853,2019-8-26T12:17:00Z
2019-08-26T10:19:42Z,42.805,6.029,13.2958,4.59962,2469.83,2019-8-26T12:20:04Z
2019-08-26T10:22:45Z,42.805,6.029,13.2957,4.59969,2469.867,2019-8-26T12:23:07Z
2019-08-26T10:25:48Z,42.805,6.029,13.2963,4.59957,2469.816,2019-8-26T12:26:10Z
2019-08-26T10:28:52Z,42.805,6.029,13.2962,4.59957,2469.806,2019-8-26T12:29:13Z
2019-08-26T10:31:55Z,42.805,6.029,13.2962,4.59960,2469.83,2019-8-26T12:32:17Z
2019-08-26T10:34:58Z,42.805,6.029,13.2965,4.59967,2469.83,2019-8-26T12:35:20Z
2019-08-26T10:38:01Z,42.805,6.029,13.2962,4.59964,2469.806,2019-8-26T12:38:23Z
2019-08-26T10:41:05Z,42.805,6.029,13.2966,4.59964,2469.821,2019-8-26T12:41:26Z
2019-08-26T10:44:08Z,42.805,6.029,13.2962,4.59960,2469.821,2019-8-26T12:44:29Z
2019-08-26T10:47:11Z,42.805,6.029,13.2962,4.59958,2469.83,2019-8-26T12:47:32Z
2019-08-26T10:50:14Z,42.805,6.029,13.2958,4.59958,2469.867,2019-8-26T12:50:36Z
2019-08-26T10:53:17Z,42.805,6.029,13.2959,4.59963,2469.806,2019-8-26T12:53:39Z
2019-08-26T10:56:21Z,42.805,6.029,13.2958,4.59963,2469.867,2019-8-26T12:56:42Z
2019-08-26T10:59:24Z,42.805,6.029,13.2957,4.59957,2469.821,2019-8-26T12:59:45Z
2019-08-26T11:02:27Z,42.805,6.029,13.2960,4.59961,2469.844,2019-8-26T13:02:49Z
2019-08-26T11:05:30Z,42.805,6.029,13.2958,4.59958,2469.821,2019-8-26T13:05:52Z
2019-08-26T11:08:34Z,42.805,6.029,13.2959,4.59961,2469.83,2019-8-26T13:08:55Z
2019-08-26T11:11:37Z,42.805,6.029,13.2958,4.59956,2469.853,2019-8-26T13:11:58Z
2019-08-26T11:14:40Z,42.805,6.029,13.2958,4.59956,2469.821,2019-8-26T13:15:02Z
2019-08-26T11:17:43Z,42.805,6.029,13.2958,4.59956,2469.83,2019-8-26T13:18:05Z
2019-08-26T11:20:46Z,42.805,6.029,13.2958,4.59958,2469.821,2019-8-26T13:21:08Z
2019-08-26T11:23:50Z,42.805,6.029,13.2960,4.59960,2469.853,2019-8-26T13:24:11Z
2019-08-26T11:26:53Z,42.805,6.029,13.2961,4.59957,2469.853,2019-8-26T13:27:14Z
2019-08-26T11:29:56Z,42.805,6.029,13.2962,4.59957,2469.853,2019-8-26T13:30:18Z
2019-08-26T11:32:59Z,42.805,6.029,13.2959,4.59959,2469.806,2019-8-26T13:33:21Z
2019-08-26T11:36:02Z,42.805,6.029,13.2961,4.59961,2469.83,2019-8-26T13:36:24Z
2019-08-26T11:39:06Z,42.805,6.029,13.2961,4.59964,2469.867,2019-8-26T13:39:27Z
2019-08-26T11:42:09Z,42.805,6.029,13.2964,4.59961,2469.83,2019-8-26T13:42:30Z
2019-08-26T11:45:12Z,42.805,6.029,13.2961,4.59964,2469.844,2019-8-26T13:45:34Z
2019-08-26T11:48:15Z,42.805,6.029,13.2961,4.59961,2469.83,2019-8-26T13:48:37Z
2019-08-26T11:51:19Z,42.805,6.029,13.2963,4.59961,2469.853,2019-8-26T13:51:40Z
2019-08-26T11:54:22Z,42.805,6.029,13.2958,4.59958,2469.867,2019-8-26T13:54:43Z
2019-08-26T11:57:25Z,42.805,6.029,13.2964,4.59958,2469.844,2019-8-26T13:57:47Z
2019-08-26T12:00:28Z,42.805,6.029,13.2957,4.59959,2469.83,2019-8-26T14:00:50Z
2019-08-26T12:03:31Z,42.805,6.029,13.2959,4.59958,2469.83,2019-8-26T14:03:53Z
2019-08-26T12:06:35Z,42.805,6.029,13.2960,4.59959,2469.806,2019-8-26T14:06:56Z
2019-08-26T12:09:38Z,42.805,6.029,13.2961,4.59961,2469.876,2019-8-26T14:09:59Z
2019-08-26T12:12:41Z,42.805,6.029,13.2957,4.59956,2469.853,2019-8-26T14:13:03Z
2019-08-26T12:15:44Z,42.805,6.029,13.2953,4.59957,2469.83,2019-8-26T14:16:06Z
2019-08-26T12:18:47Z,42.805,6.029,13.2958,4.59958,2469.9,2019-8-26T14:19:09Z
2019-08-26T12:21:51Z,42.805,6.029,13.2958,4.59960,2469.853,2019-8-26T14:22:12Z
2019-08-26T12:24:54Z,42.805,6.029,13.2954,4.59956,2469.89,2019-8-26T14:25:15Z
2019-08-26T12:27:57Z,42.805,6.029,13.2960,4.59957,2469.83,2019-8-26T14:28:19Z
2019-08-26T12:31:00Z,42.805,6.029,13.2957,4.59958,2469.9,2019-8-26T14:31:22Z
2019-08-26T12:34:04Z,42.805,6.029,13.2958,4.59957,2469.83,2019-8-26T14:34:25Z
2019-08-26T12:37:07Z,42.805,6.029,13.2958,4.59959,2469.853,2019-8-26T14:37:28Z
2019-08-26T12:40:10Z,42.805,6.029,13.2958,4.59957,2469.876,2019-8-26T14:40:32Z
2019-08-26T12:43:13Z,42.805,6.029,13.2958,4.59957,2469.876,2019-8-26T14:43:35Z
2019-08-26T12:46:17Z,42.805,6.029,13.2956,4.59957,2469.914,2019-8-26T14:46:38Z
2019-08-26T12:49:20Z,42.805,6.029,13.2958,4.59961,2469.876,2019-8-26T14:49:41Z
2019-08-26T12:52:23Z,42.805,6.029,13.2958,4.59963,2469.876,2019-8-26T14:52:44Z
2019-08-26T12:55:26Z,42.805,6.029,13.2958,4.59959,2469.89,2019-8-26T14:55:48Z
2019-08-26T12:58:29Z,42.805,6.029,13.2961,4.59966,2469.923,2019-8-26T14:58:51Z
2019-08-26T13:01:33Z,42.805,6.029,13.2960,4.59969,2469.876,2019-8-26T15:01:54Z
2019-08-26T13:04:36Z,42.805,6.029,13.2957,4.59963,2469.914,2019-8-26T15:04:57Z
2019-08-26T13:07:39Z,42.805,6.029,13.2962,4.59967,2469.914,2019-8-26T15:08:01Z
2019-08-26T13:10:42Z,42.805,6.029,13.2957,4.59968,2469.9,2019-8-26T15:11:04Z
2019-08-26T13:13:45Z,42.805,6.029,13.2958,4.59971,2469.9,2019-8-26T15:14:07Z
2019-08-26T13:16:49Z,42.805,6.029,13.2958,4.59964,2469.867,2019-8-26T15:17:10Z
2019-08-26T13:19:52Z,42.805,6.029,13.2958,4.59969,2469.923,2019-8-26T15:20:13Z
2019-08-26T13:22:55Z,42.805,6.029,13.2955,4.59971,2469.923,2019-8-26T15:23:17Z
2019-08-26T13:25:58Z,42.805,6.029,13.2958,4.59966,2469.853,2019-8-26T15:26:20Z
2019-08-26T13:29:02Z,42.805,6.029,13.2960,4.59971,2469.923,2019-8-26T15:29:23Z
2019-08-26T13:32:05Z,42.805,6.029,13.2959,4.59972,2469.923,2019-8-26T15:32:26Z
2019-08-26T13:35:08Z,42.805,6.029,13.2967,4.59982,2469.923,2019-8-26T15:35:29Z
2019-08-26T13:38:11Z,42.805,6.029,13.3001,4.59993,2469.914,2019-8-26T15:38:33Z
2019-08-26T13:41:14Z,42.805,6.029,13.2961,4.59976,2469.923,2019-8-26T15:41:36Z
2019-08-26T13:44:17Z,42.805,6.029,13.2959,4.59966,2469.947,2019-8-26T15:44:39Z
2019-08-26T13:47:21Z,42.805,6.029,13.2978,4.59963,2469.89,2019-8-26T15:47:42Z
2019-08-26T13:50:24Z,42.805,6.029,13.2970,4.59965,2469.937,2019-8-26T15:50:45Z
2019-08-26T13:53:27Z,42.805,6.029,13.2959,4.59971,2469.96,2019-8-26T15:53:49Z
2019-08-26T13:56:30Z,42.805,6.029,13.2972,4.59966,2469.923,2019-8-26T15:56:52Z
2019-08-26T13:59:33Z,42.805,6.029,13.2957,4.59976,2469.947,2019-8-26T15:59:55Z
2019-08-26T14:02:37Z,42.805,6.029,13.2971,4.59960,2469.923,2019-8-26T16:02:58Z
2019-08-26T14:13:08Z,42.805,6.029,13.2959,4.59966,2469.923,2019-8-26T16:13:29Z
2019-08-26T14:16:11Z,42.805,6.029,13.2977,4.59999,2469.947,2019-8-26T16:16:33Z
2019-08-26T14:19:14Z,42.805,6.029,13.2997,4.60001,2469.923,2019-8-26T16:19:36Z
2019-08-26T14:22:18Z,42.805,6.029,13.2996,4.59983,2469.923,2019-8-26T16:22:39Z
2019-08-26T14:25:21Z,42.805,6.029,13.3006,4.59981,2469.96,2019-8-26T16:25:43Z
2019-08-26T14:28:24Z,42.805,6.029,13.2980,4.60004,2469.947,2019-8-26T16:28:46Z
2019-08-26T14:31:27Z,42.805,6.029,13.2993,4.60009,2469.947,2019-8-26T16:31:49Z
2019-08-26T14:34:31Z,42.805,6.029,13.2979,4.60025,2469.923,2019-8-26T16:34:52Z
2019-08-26T14:37:34Z,42.805,6.029,13.2986,4.60044,2469.923,2019-8-26T16:37:55Z
2019-08-26T14:40:37Z,42.805,6.029,13.2999,4.60050,2469.923,2019-8-26T16:40:58Z
2019-08-26T14:43:40Z,42.805,6.029,13.2993,4.60039,2469.923,2019-8-26T16:44:02Z
2019-08-26T14:46:43Z,42.805,6.029,13.2982,4.60032,2469.937,2019-8-26T16:47:05Z
2019-08-26T14:49:47Z,42.805,6.029,13.2990,4.60044,2469.96,2019-8-26T16:50:08Z
2019-08-26T14:52:50Z,42.805,6.029,13.2984,4.60021,2469.937,2019-8-26T16:53:11Z
2019-08-26T14:55:53Z,42.805,6.029,13.2991,4.60062,2469.947,2019-8-26T16:56:14Z
2019-08-26T14:58:56Z,42.805,6.029,13.2983,4.60021,2469.923,2019-8-26T16:59:18Z
2019-08-26T15:01:59Z,42.805,6.029,13.2977,4.60026,2469.923,2019-8-26T17:02:21Z
2019-08-26T15:05:02Z,42.805,6.029,13.2982,4.60016,2469.947,2019-8-26T17:05:24Z
2019-08-26T15:08:06Z,42.805,6.029,13.2985,4.60028,2469.96,2019-8-26T17:08:27Z
2019-08-26T15:11:09Z,42.805,6.029,13.2981,4.60043,2469.947,2019-8-26T17:11:30Z
2019-08-26T15:14:12Z,42.805,6.029,13.3011,4.60039,2469.937,2019-8-26T17:14:34Z
2019-08-26T15:17:15Z,42.805,6.029,13.2986,4.60059,2469.947,2019-8-26T17:17:37Z
2019-08-26T15:20:19Z,42.805,6.029,13.2979,4.60060,2469.937,2019-8-26T17:20:40Z
2019-08-26T15:23:22Z,42.805,6.029,13.2987,4.60041,2469.96,2019-8-26T17:23:43Z